Location: Aulnoy
(48.8410°N, 3.0967°E)
Time: 08:21:03
(UTC+00:00)

Okean-O - Pass Details

Date: 09 February 2023
Orbit: 637 x 638 km, 98.1° (Epoch: 24 March)

Event Time Altitude Azimuth Distance (km) Brightness Sun altitude
Exits shadow 20:05:52 29° 325° (NW) 1,189 4.3 -31.2°
Drops below altitude 10° 20:08:10 10° 338° (NNW) 2,042 5.6 -31.5°
Sets 20:10:26 0° 343° (NNW) 2,957 6.4 -31.9°
